Regional Weather Roundup
Issued by NWS

Home | Current Version | Previous Version | Graphics & Text | Print | Product List | Glossary On
Versions: 1 2 3 4 5 6 7 8 9 10 11 12 13 14 15 16 17 18 19 20 21 22 23 24 25 26 27 28 29 30 31 32 33 34 35 36 37 38 39 40 41 42 43 44 45 46 47 48 49 50
000
ASUS43 KMKX 191200
RWRWI

WISCONSIN REGIONAL WEATHER ROUNDUP
NATIONAL WEATHER SERVICE MILWAUKEE/SULLIVAN WI
700 AM CDT SAT AUG 19 2017

NOTE: "FAIR" INDICATES FEW OR NO CLOUDS BELOW 12,000 FEET WITH NO
SIGNIFICANT WEATHER AND/OR OBSTRUCTIONS TO VISIBILITY.

WIZ001-002-006>008-014>016-023>028-191300-
NORTHWEST WISCONSIN

CITY           SKY/WX    TMP DP  RH WIND       PRES   REMARKS
SUPERIOR ARPT    N/A     55  55 100 SW7       29.88R
ASHLAND        CLEAR     59  57  93 SW9       29.88R
6HR MIN TEMP:  57; 6HR MAX TEMP:  63;

HAYWARD        FOG       56  55  97 S3        29.93R VSB 1
6HR MIN TEMP:  56; 6HR MAX TEMP:  61;

SIREN          CLEAR     53  52  97 CALM      29.92R
CUMBERLAND     FOG       52  50  93 CALM      29.93S VSB<1/4
RICE LAKE      FOG       53  52  98 CALM      29.94S VSB<1/4
CHETEK         FOG       54  54 100 CALM      29.93R VSB 1/4
LADYSMITH      FOG       57  57  97 CALM      29.94S VSB 3/4
EAU CLAIRE     FOG       57  57 100 CALM      29.93R VSB<1/4
6HR MIN TEMP:  55; 6HR MAX TEMP:  62;

MENOMONIE      FOG       55  55 100 CALM      29.94R VSB<1/4
NEW RICHMOND   CLEAR     56  56 100 S3        29.94R FOG
OSCEOLA        MOCLDY    52  52 100 CALM      29.96R FOG
$$

WIZ003>005-009-010-017-018-191300-
NORTH CENTRAL WISCONSIN

CITY           SKY/WX    TMP DP  RH WIND       PRES   REMARKS
MANITOWISH WTR PTCLDY    53  53 100 CALM      29.91R FOG
ARBOR VITAE    FOG       57  56  97 CALM      29.91S VSB 1/2
WOODRUFF       FOG       57  56  97 CALM      29.91S VSB 1/2
RHINELANDER    MOCLDY    59  59 100 SW3       29.93S FOG
6HR MIN TEMP:  55; 6HR MAX TEMP:  59; 6HR PCP: TRACE;

EAGLE RIVER    CLEAR     55  55 100 SW6       29.91S FOG
LAND O LAKES   CLEAR     57  57 100 CALM      29.91S
PHILLIPS       CLOUDY    58  58 100 W3        29.92R FOG
TOMAHAWK       FOG       57  56  97 CALM      29.93S VSB 1
MEDFORD        FOG       58  58  99 W6        29.94R VSB<1/4
MERRILL        PTCLDY    61  61 100 W5        29.93S FOG
$$

WIZ029-030-035-036-043>047-191300-
CENTRAL WISCONSIN

CITY           SKY/WX    TMP DP  RH WIND       PRES   REMARKS
WAUSAU         MOCLDY    61  60  97 W6        29.92R FOG
6HR MIN TEMP:  61; 6HR MAX TEMP:  64;

MOSINEE        PTCLDY    59  59 100 W5        29.95R FOG
MARSHFIELD     CLEAR     57  56  96 NW3       29.94R FOG
6HR MIN TEMP:  57; 6HR MAX TEMP:  62;

STEVENS POINT  FOG       58  58 100 W3        29.95R VSB 1/2
WAUPACA        CLOUDY    66  64  96 W5        29.93S FOG
WAUTOMA        CLEAR     59  59 100 CALM      29.95R FOG
6HR MIN TEMP:  58; 6HR MAX TEMP:  64;

WISC RAPIDS    FOG       58  58 100 CALM      29.96R VSB<1/4
6HR MIN TEMP:  56; 6HR MAX TEMP:  64;

CAMP DOUGLAS   FOG       50  50 100 CALM      29.94S VSB 1/2
$$

WIZ011>013-019>022-031-037>040-048>050-191300-
NORTHEAST WISCONSIN

CITY           SKY/WX    TMP DP  RH WIND       PRES   REMARKS
ANTIGO         CLOUDY    60  60 100 W3        29.93S FOG
SHAWANO        CLOUDY    64  62  92 W5        29.91R
OCONTO         CLEAR     58  57  99 W7        29.89R
STURGEON BAY   MOSUNNY   60  59  96 W6        29.90R
6HR MIN TEMP:  58; 6HR MAX TEMP:  62;

GREEN BAY      CLOUDY    62  62 100 W9        29.92R FOG
6HR MIN TEMP:  58; 6HR MAX TEMP:  62;

MANITOWOC      NOT AVBL
APPLETON       CLOUDY    63  63 100 W6        29.92R FOG
CLINTONVILLE   CLOUDY    63  61  94 W5        29.91S
OSHKOSH        CLOUDY    64  62  93 W6        29.93R FOG
6HR MIN TEMP:  62; 6HR MAX TEMP:  65;

$$

WIZ032>034-041-042-053>061-191300-
SOUTHWEST WISCONSIN

CITY           SKY/WX    TMP DP  RH WIND       PRES   REMARKS
LA CROSSE      FOG       62  61  96 S3        29.94R VSB 1/4
6HR MIN TEMP:  60; 6HR MAX TEMP:  64;

SPARTA         FOG       51  51 100 CALM      29.95S VSB 1/2
VIROQUA          N/A     56  56 100 CALM      29.95S VSB<1/4
BOSCOBEL       FOG       58  57  97 CALM      29.96R VSB<1/4
6HR MIN TEMP:  58; 6HR MAX TEMP:  60;

PRAIRIE DU CHI FOG       57  56  95 CALM      29.95R VSB 1/4
PLATTEVILLE      N/A     54  54 100 CALM      29.96R VSB<1/4
$$

WIZ056-057-062-063-064-067-068-191300-
SOUTH CENTRAL WISCONSIN

CITY           SKY/WX    TMP DP  RH WIND       PRES   REMARKS
REEDSBURG      PTCLDY    54  54 100 CALM      29.95R FOG
BARABOO/DELLS  CLEAR     57  56  96 CALM      29.95S FOG
LONE ROCK      FOG       57  57 100 CALM      29.95R VSB<1/4
6HR MIN TEMP:  57; 6HR MAX TEMP:  61;

MINERAL POINT    N/A     59  59 100 CALM      29.95S FOG
MADISON        CLEAR     58  57  97 CALM      29.94S
6HR MIN TEMP:  57; 6HR MAX TEMP:  62;

MIDDLETON        N/A     57  57 100 NW3       29.95S
WATERTOWN      MOCLDY    59  59 100 N3        29.94R
MONROE         CLEAR     57  55  94 N5        29.95R
JANESVILLE     CLEAR     57  57 100 CALM      29.94S FOG
$$

WIZ051-052-058>065-066-070>072-191300-
SOUTHEAST WISCONSIN

CITY           SKY/WX    TMP DP  RH WIND       PRES   REMARKS
MILWAUKEE      CLEAR     65  62  90 NW6       29.93R
6HR MIN TEMP:  65; 6HR MAX TEMP:  69;

WAUKESHA       CLOUDY    61  61 100 NW6       29.95R FOG
MILWAUKEE/TIMM CLOUDY    61  59  94 W5        29.95R
RACINE         CLEAR     62  62 100 NW5       29.95R
6HR MIN TEMP:  61; 6HR MAX TEMP:  64;

KENOSHA        CLEAR     61  59  93 NW3       29.95R
6HR MIN TEMP:  58; 6HR MAX TEMP:  64;

FOND DU LAC    CLEAR     63  60  90 SW3       29.94R FOG
6HR MIN TEMP:  63; 6HR MAX TEMP:  65;

SHEBOYGAN      PTCLDY    62  62 100 W6        29.92R FOG
6HR MIN TEMP:  59; 6HR MAX TEMP:  64; 6HR PCP: TRACE;

WEST BEND      CLOUDY    61  61 100 W7        29.94R
JUNEAU         CLOUDY    61  61  98 CALM      29.95S FOG
$$

LSZ147-162-191300-
LAKE SUPERIOR

STATION/POSITION TIME  TEMP    WIND        PRES    WAVE
                       AIR SEA DIR/SP/G            HT/PER
                 (UTC) (F)     (DEG/KT/KT) (MB)    (FT/S)
W MID LAKE BUOY  1050   61 60  250/ 14/ 16 1009.3R   1/ 3
DEVILS ISLAND    1100   61     220/ 13/ 15 1010.5R
SAXON HARBOR     1140   63     170/  3/  7 1010.8S
$$

LMZ867-665-643>646-191300-
LAKE MICHIGAN

STATION/POSITION TIME  TEMP    WIND        PRES    WAVE
                       AIR SEA DIR/SP/G            HT/PER
                 (UTC) (F)     (DEG/KT/KT) (MB)    (FT/S)
S GREEN BAY BUOY 1130   65 70  270/ 10/ 14 1011.9R
N MID LAKE BUOY  1050   65 66  270/  4/  6 1011.3R   1/ 3
NORTHPORT PIER   1140   63     270/  1/  4 1011.5R
KEWAUNEE LAKESHO 1130   60     290/  5/  6 1011.5R
SHEBOYGAN LAKESH 1100   64     270/  7/  8 1012.3R
PORT WASHINGTON  1140   65     280/  4/  7 1014.2R
ATWATER BUOY     1009   67 70  300/  8/ 10 1012.8
MILWAUKEE LAKESH 1130   65     300/  7/  8   N/A
S MID LAKE BUOY  1050   69 71  350/ 10/ 12 1012.2R   2/ 4
KENOSHA   LAKESH 1100   63     310/  9/ 11 1012.9
$$

TC  - TEMPERATURE IN CELSIUS
VSB - VISIBILITY IN STATUTE MILES
WCI - WIND CHILL INDEX
HX  - HEAT INDEX




USA.gov is the U.S. government's official web portal to all federal, state and local government web resources and services.